Glendale Luke AFB, AZ

2:10 AM MST on November 14, 2019 (GMT -0700)
Luke Air Force Base

Weather History for KLUF - September, 2019

Change the Weather History Date:

Thursday, September 19, 2019

  Actual Average Record
Temperature  
Mean Temperature 84 °F -  
Max Temperature 97 °F 99 °F 110 °F (1962)
Min Temperature 70 °F 65 °F 50 °F (1978)
Cooling Degree Days 18    
Growing Degree Days 34 (Base 50)    
Moisture  
Dew Point 46 °F    
Average Humidity 25    
Maximum Humidity 43    
Minimum Humidity 13    
Precipitation  
Precipitation 0.00 in - - ()
Sea Level Pressure  
Sea Level Pressure 29.69 in    
Wind  
Wind Speed 5 mph (WSW)    
Max Wind Speed 17 mph    
Max Gust Speed 23 mph    
Visibility 10 miles    
Events      
Averages and records for this station are not official NWS values.
T = Trace of Precipitation, MM = Missing Value Source: NWS Daily Summary

Daily Weather History Graph

Daily Weather History Graph

Search for Another Location

Airport or City:

Astronomy

Sep. 19, 2019 Rise Set
Actual Time 6:15 AM MST 6:30 PM MST
Civil Twilight 5:50 AM MST 6:55 PM MST
Nautical Twilight 5:21 AM MST 7:24 PM MST
Astronomical Twilight 4:52 AM MST 7:53 PM MST
Moon 9:57 PM MST (9/19) 11:08 AM MST (9/19)
Length of Visible Light 13h 04m
Length of Day
12h 15m
Waning Gibbous, 73% of the Moon is Illuminated
Sep 19
Waning Gibbous
Sep 21
Last Quarter
Sep 28
New
Oct 5
First Quarter
Oct 13
Full

Hourly Weather History & Observations

Time (MST) Temp. Dew Point Humidity Pressure Visibility Wind Dir Wind Speed Gust Speed Precip Events Conditions
12:58 AM 82.4 °F 47.8 °F 30% 29.72 in 10.0 mi Calm Calm - N/A   Clear
1:58 AM 76.6 °F 50.5 °F 40% 29.73 in 10.0 mi North 3.5 mph - N/A   Clear
2:58 AM 76.3 °F 48.0 °F 37% 29.72 in 10.0 mi Calm Calm - N/A   Clear
3:58 AM 73.0 °F 46.6 °F 39% 29.73 in 10.0 mi Calm Calm - N/A   Clear
4:58 AM 70.9 °F 47.3 °F 43% 29.73 in 10.0 mi NW 3.5 mph - N/A   Clear
5:58 AM 71.4 °F 41.5 °F 34% 29.73 in 10.0 mi NNW 5.8 mph - N/A   Clear
6:58 AM 72.3 °F 46.0 °F 39% 29.75 in 10.0 mi North 6.9 mph - N/A   Clear
7:58 AM 79.5 °F 48.7 °F 34% 29.76 in 10.0 mi NE 4.6 mph - N/A   Clear
8:58 AM 85.8 °F 49.8 °F 29% 29.77 in 10.0 mi Calm Calm - N/A   Clear
9:58 AM 88.5 °F 50.2 °F 27% 29.76 in 10.0 mi Calm Calm - N/A   Clear
10:58 AM 91.2 °F 49.3 °F 24% 29.74 in 10.0 mi SE 4.6 mph - N/A   Clear
11:58 AM 93.4 °F 48.7 °F 22% 29.72 in 10.0 mi SSE 8.1 mph - N/A   Clear
12:44 PM 95.0 °F 48.2 °F 20% 29.70 in 10.0 mi SSW 12.7 mph - N/A   Clear
12:58 PM 95.4 °F 46.6 °F 19% 29.70 in 10.0 mi SSW 17.3 mph 21.9 mph N/A   Clear
1:37 PM 96.8 °F 46.4 °F 18% 29.68 in 10.0 mi South 16.1 mph 21.9 mph N/A   Clear
1:58 PM 96.4 °F 47.5 °F 19% 29.67 in 10.0 mi WSW 11.5 mph 20.7 mph N/A   Clear
2:58 PM 96.6 °F 51.4 °F 22% 29.64 in 10.0 mi SSW 13.8 mph 23.0 mph N/A   Clear
3:58 PM 97.0 °F 50.5 °F 21% 29.62 in 10.0 mi SSW 15.0 mph 21.9 mph N/A   Clear
3:59 PM 96.8 °F 50.0 °F 20% 29.63 in 10.0 mi SW 15.0 mph 21.9 mph N/A   Clear
4:58 PM 96.8 °F 49.1 °F 20% 29.61 in 10.0 mi WSW 13.8 mph 23.0 mph N/A   Clear
5:58 PM 94.8 °F 43.2 °F 17% 29.60 in 10.0 mi WSW 13.8 mph - N/A   Clear
6:58 PM 90.3 °F 41.0 °F 18% 29.61 in 10.0 mi West 5.8 mph - N/A   Clear
7:58 PM 87.4 °F 40.1 °F 19% 29.61 in 10.0 mi West 4.6 mph - N/A   Clear
8:58 PM 86.2 °F 39.0 °F 19% 29.62 in 10.0 mi SW 3.5 mph - N/A   Clear
9:58 PM 85.1 °F 28.8 °F 13% 29.63 in 10.0 mi WSW 6.9 mph - N/A   Clear
10:58 PM 81.3 °F 33.8 °F 18% 29.64 in 10.0 mi SW 12.7 mph - N/A   Clear